Montgomery, AL

2:10 PM CST on January 20, 2017 (GMT -0600)
Montgomery Regional

Weather History for KMGM - July, 2013

Change the Weather History Date:

Tuesday, July 16, 2013

  Actual Average Record
Temperature  
Mean Temperature 83 °F 82 °F  
Max Temperature 92 °F 92 °F 102 °F (2000)
Min Temperature 73 °F 72 °F 62 °F (1967)
Cooling Degree Days 18 17  
Month to date cooling degree days 232 266  
Year to date cooling degree days 1082 1024  
Since 1 June cooling degree days 723 685  
Growing Degree Days 32 (Base 50)    
Moisture  
Dew Point 70 °F    
Average Humidity 70    
Maximum Humidity 93    
Minimum Humidity 47    
Precipitation  
Precipitation 0.00 in 0.18 in 1.84 in (1954)
Month to date precipitation 2.83 2.85  
Year to date precipitation 32.39 30.36  
Sea Level Pressure  
Sea Level Pressure 30.21 in    
Wind  
Wind Speed 8 mph (East)    
Max Wind Speed 17 mph    
Max Gust Speed 22 mph    
Visibility 10 miles    
Events      
T = Trace of Precipitation, MM = Missing Value Source: NWS Daily Summary

Daily Weather History Graph

Daily Weather History Graph

Search for Another Location

Airport or City:

Trip Planner

Search our weather history database for the weather conditions in past years. The results will help you decide how hot, cold, wet, or windy it might be!

Date:

Astronomy

Jul. 16, 2013 Rise Set
Actual Time 5:50 AM CDT 7:52 PM CDT
Civil Twilight 5:22 AM CDT 8:20 PM CDT
Nautical Twilight 4:48 AM CDT 8:54 PM CDT
Astronomical Twilight 4:12 AM CDT 9:29 PM CDT
Moon 1:41 PM CDT (7/16) 12:09 AM CDT (7/16)
Length of Visible Light 14h 57m
Length of Day
14h 02m
First Quarter, 56% of the Moon is Illuminated
Jul 16
First Quarter
Jul 22
Full
Jul 29
Last Quarter
Aug 6
New
Aug 14
First Quarter

Hourly Weather History & Observations

Time (CDT) Temp. Heat Index Dew Point Humidity Pressure Visibility Wind Dir Wind Speed Gust Speed Precip Events Conditions
12:53 AM 75.0 °F - 70.0 °F 84% 30.20 in 10.0 mi East 9.2 mph - N/A   Clear
1:53 AM 73.9 °F - 70.0 °F 87% 30.19 in 10.0 mi East 8.1 mph - N/A   Clear
2:53 AM 73.9 °F - 70.0 °F 87% 30.19 in 10.0 mi East 8.1 mph - N/A   Clear
3:53 AM 73.9 °F - 70.0 °F 87% 30.19 in 10.0 mi East 6.9 mph - N/A   Scattered Clouds
3:59 AM 73.4 °F - 69.8 °F 88% 30.20 in 10.0 mi East 8.1 mph - N/A   Mostly Cloudy
4:36 AM 73.4 °F - 71.6 °F 94% 30.20 in 10.0 mi East 9.2 mph - N/A   Overcast
4:51 AM 75.2 °F - 71.6 °F 89% 30.19 in 10.0 mi East 10.4 mph - N/A   Overcast
4:53 AM 75.0 °F - 71.1 °F 87% 30.19 in 10.0 mi East 9.2 mph - N/A   Overcast
5:00 AM 75.2 °F - 71.6 °F 89% 30.19 in 10.0 mi East 10.4 mph - N/A   Overcast
5:37 AM 73.4 °F - 71.6 °F 94% 30.20 in 10.0 mi ENE 9.2 mph - N/A   Scattered Clouds
5:53 AM 73.9 °F - 71.1 °F 91% 30.20 in 10.0 mi ENE 8.1 mph - N/A   Clear
6:10 AM 75.2 °F - 71.6 °F 89% 30.21 in 10.0 mi East 6.9 mph - N/A   Mostly Cloudy
6:53 AM 77.0 °F - 71.1 °F 82% 30.22 in 10.0 mi East 8.1 mph - N/A   Mostly Cloudy
7:53 AM 79.0 °F - 71.1 °F 77% 30.23 in 10.0 mi ENE 13.8 mph - N/A   Mostly Cloudy
8:19 AM 78.8 °F - 71.6 °F 78% 30.25 in 10.0 mi East 15.0 mph - N/A   Overcast
8:53 AM 80.1 °F 83.6 °F 71.1 °F 74% 30.25 in 10.0 mi East 16.1 mph - N/A   Mostly Cloudy
9:53 AM 81.0 °F 84.9 °F 71.1 °F 72% 30.25 in 10.0 mi East 11.5 mph - N/A   Overcast
10:18 AM 82.4 °F 87.2 °F 71.6 °F 70% 30.26 in 10.0 mi East 13.8 mph - N/A   Mostly Cloudy
10:53 AM 84.0 °F 89.0 °F 71.1 °F 65% 30.25 in 10.0 mi East 15.0 mph - N/A   Scattered Clouds
11:53 AM 86.0 °F 91.5 °F 71.1 °F 61% 30.25 in 10.0 mi ESE 10.4 mph - N/A   Mostly Cloudy
12:53 PM 88.0 °F 93.8 °F 71.1 °F 57% 30.24 in 10.0 mi ESE 11.5 mph 19.6 mph N/A   Mostly Cloudy
1:53 PM 89.1 °F 94.1 °F 70.0 °F 53% 30.22 in 10.0 mi East 12.7 mph 21.9 mph N/A   Scattered Clouds
2:53 PM 90.0 °F 95.4 °F 70.0 °F 52% 30.20 in 10.0 mi East 8.1 mph 16.1 mph N/A   Clear
3:53 PM 89.1 °F 92.9 °F 68.0 °F 50% 30.19 in 10.0 mi East 9.2 mph - N/A   Clear
4:53 PM 91.0 °F 95.2 °F 68.0 °F 47% 30.18 in 10.0 mi ENE 6.9 mph - N/A   Clear
5:53 PM 90.0 °F 93.6 °F 68.0 °F 48% 30.17 in 10.0 mi ENE 9.2 mph - N/A   Clear
6:53 PM 88.0 °F 91.4 °F 68.0 °F 51% 30.18 in 10.0 mi East 6.9 mph - N/A   Clear
7:53 PM 82.9 °F 87.0 °F 70.0 °F 65% 30.20 in 10.0 mi East 4.6 mph - N/A   Clear
8:53 PM 81.0 °F 84.4 °F 70.0 °F 69% 30.22 in 10.0 mi East 4.6 mph - N/A   Clear
9:53 PM 80.1 °F 83.2 °F 70.0 °F 71% 30.22 in 10.0 mi Calm Calm - N/A   Clear
10:53 PM 79.0 °F - 70.0 °F 74% 30.23 in 10.0 mi Calm Calm - N/A   Clear
11:53 PM 75.9 °F - 70.0 °F 82% 30.23 in 10.0 mi Calm Calm - N/A   Clear